Regional Weather Roundup
Issued by NWS

Home | Current Version | Previous Version | Text Only | Print | Product List | Glossary On
Versions: 1 2 3 4 5 6 7 8 9 10 11 12 13 14 15 16 17 18 19 20 21 22 23 24 25 26 27
000
ASUS46 KSEW 140510
RWRWA

WASHINGTON REGIONAL WEATHER ROUNDUP
NATIONAL WEATHER SERVICE SEATTLE WA
900 PM PST WED DEC 13 2017

NOTE:"FAIR" INDICATES FEW OR NO CLOUDS BELOW 12,000 FEET WITH NO
SIGNIFICANT WEATHER AND/OR OBSTRUCTIONS TO VISIBILITY.

WAZ507-509-555>559-140600-
SEATTLE, TACOMA, EVERETT, AND VICINITY

CITY           SKY/WX    TMP DP  RH WIND       PRES   REMARKS
EVERETT        PTCLDY    43  40  89 N6        30.40S
BOEING FIELD   PTCLDY    45  39  79 CALM      30.40R
RENTON         PTCLDY    44  38  79 NW9       30.39S
SEATAC AIRPORT PTCLDY    43  38  82 NE14      30.38S
JBLM-MCCHORD   MOCLDY    32  32 100 S3        30.39S
PUYALLUP       FAIR      32  32 100 CALM      30.39S
BREMERTON      MOCLDY    36  36 100 CALM      30.39R
JBLM-FT LEWIS  NOT AVBL
TACOMA NARROWS MOCLDY    44  40  85 CALM      30.39R
$$

WAZ001-503-506-510-514-515-140600-
NORTH INTERIOR

CITY           SKY/WX    TMP DP  RH WIND       PRES   REMARKS
BELLINGHAM     MOCLDY    36  35  96 CALM      30.41S
FRIDAY HARBOR  MOCLDY    41  38  89 CALM      30.41F
EASTSOUND      MOCLDY    45  43  93 N6        30.41F
PORT ANGELES   CLOUDY    39  37  92 S6        30.41S
EDIZ HOOK      FAIR      46  40  79 SE7       30.41F
PORT TOWNSEND  FAIR      43  39  87 NW5       30.41S
NAS WHIDBEY    MOCLDY    41  37  86 SE5       30.45S
ARLINGTON      PTCLDY    34  33  96 N5        30.41S
BURLINGTON     CLEAR     37  37 100 CALM      30.41F
$$

WAZ020-022-039-040-504-511-512-140600-
SOUTHWEST INTERIOR

CITY           SKY/WX    TMP DP  RH WIND       PRES   REMARKS
SHELTON        MOCLDY    32  31  96 CALM      30.37S
OLYMPIA        MOCLDY    33  33 100 CALM      30.40R FOG
CHEHALIS       FAIR      34  34 100 NW3       30.39S
KELSO          CLEAR     32  31  96 CALM      30.39S
VANCOUVER      CLEAR     35  30  82 CALM      30.38S
SCAPPOOSE, OR  CLEAR     29  28  96 W3        30.39R
PORTLAND, OR   CLEAR     38  29  70 SE9       30.38S
$$

WAZ021-516-517-140600-
WASHINGTON COAST

CITY           SKY/WX    TMP DP  RH WIND       PRES   REMARKS
FORKS          CLOUDY    36  35  96 CALM      30.35F FOG
HOQUIAM        CLOUDY    42  40  92 E14       30.34F
ASTORIA, OR    PTCLDY    45  36  70 E9        30.32S
$$

WAZ019-023-024-040-567>569-140600-
CASCADE MOUNTAINS AND COLUMBIA GORGE

CITY           SKY/WX    TMP DP  RH WIND       PRES   REMARKS
STAMPEDE PASS  NOT AVBL
TROUTDALE, OR  CLEAR     38  28  67 E28G40    30.39S
HOOD RIVER, OR CLOUDY    32  27  80 NE5       30.60S
THE DALLES, OR CLOUDY    35  26  69 SE7       30.64R
$$

WAZ026-027-041>044-520-521-140600-
EAST SLOPES

CITY           SKY/WX    TMP DP  RH WIND       PRES   REMARKS
OMAK           CLOUDY    32  29  88 CALM      30.60R
WENATCHEE      MOCLDY    29  26  89 E9        30.60R
ELLENSBURG     CLOUDY    31  26  82 CALM      30.57R
YAKIMA         CLOUDY    31  26  82 SW3       30.61R
SUNNYSIDE ARPT CLOUDY    31  26  81 S3        30.63R
YAKIMA TC      CLOUDY    29  25  82 CALM      30.57R
$$

WAZ028-034-035-140600-
COLUMBIA BASIN

CITY           SKY/WX    TMP DP  RH WIND       PRES   REMARKS
EPHRATA        CLOUDY    32  23  69 N3        30.60R
MOSES LAKE     CLOUDY    30  25  81 NW6       30.61R
PASCO          CLOUDY    33  26  75 SE3       30.66S
RICHLAND ARPT  CLOUDY    33  28  79 SW5       30.66S
HERMISTON, OR  CLOUDY    32  29  88 CALM      30.63S
$$

WAZ036>038-140600-
NORTHEAST WASHINGTON

CITY           SKY/WX    TMP DP  RH WIND       PRES   REMARKS
SPOKANE GEIGER CLOUDY    29  26  89 NE5       30.53S
SPOKANE FELTS  CLOUDY    31  26  82 CALM      30.56S
FAIRCHILD AFB  CLOUDY    28  28  99 N5        30.51F
COEURDALENE,ID CLOUDY    30  27  88 NE6       30.54S
DEER PARK      CLOUDY    30  26  85 CALM      30.55S
$$

WAZ029>033-140600-
SOUTHEAST WASHINGTON

CITY           SKY/WX    TMP DP  RH WIND       PRES   REMARKS
PULLMAN        CLOUDY    28  25  88 N5        30.53S FOG
LEWISTON, ID   CLOUDY    31  27  85 S6        30.57S
WALLA WALLA    CLOUDY    30  26  85 CALM      30.60S
PENDLETON, OR  CLOUDY    27  24  89 NW3       30.57F
$$




USA.gov is the U.S. government's official web portal to all federal, state and local government web resources and services.